Weather History for KBMQ - January, 2013

Change the Weather History Date:

Monday, January 14, 2013

  Actual Average Record
Temperature  
Mean Temperature 38 °F -  
Max Temperature 46 °F 57 °F 81 °F (2014)
Min Temperature 30 °F 37 °F 21 °F (1997)
Degree Days  
Heating Degree Days 27    
Moisture  
Dew Point 23 °F    
Average Humidity 57    
Maximum Humidity 64    
Minimum Humidity 39    
Precipitation  
Precipitation 0.00 in - - ()
Sea Level Pressure  
Sea Level Pressure 30.21 in    
Wind  
Wind Speed 12 mph (NNE)    
Max Wind Speed 16 mph    
Max Gust Speed 24 mph    
Visibility 10 miles    
Events      
Averages and records for this station are not official NWS values.
T = Trace of Precipitation, MM = Missing Value Source: NWS Daily Summary

Daily Weather History Graph

Daily Weather History Graph

Search for Another Location

Airport or City:

Trip Planner

Search our weather history database for the weather conditions in past years. The results will help you decide how hot, cold, wet, or windy it might be!

Date:

Astronomy

Jan. 14, 2013 Rise Set
Actual Time 7:31 AM CST 5:53 PM CST
Civil Twilight 7:05 AM CST 6:19 PM CST
Nautical Twilight 6:35 AM CST 6:49 PM CST
Astronomical Twilight 6:06 AM CST 7:18 PM CST
Moon 9:21 AM CST (1/14) 9:22 PM CST (1/14)
Length of Visible Light 11h 14m
Length of Day
10h 22m
Waxing Crescent, 11% of the Moon is Illuminated
Jan 14
Waxing Crescent
Jan 18
First Quarter
Jan 26
Full
Feb 3
Last Quarter
Feb 10
New

Hourly Weather History & Observations

Time (CST) Temp. Windchill Dew Point Humidity Pressure Visibility Wind Dir Wind Speed Gust Speed Precip Events Conditions
12:53 AM 33.1 °F 23.4 °F 19.9 °F 59% 30.18 in 10.0 mi NNE 13.8 mph 24.2 mph N/A   Clear
1:53 AM 32.0 °F 24.8 °F 19.9 °F 61% 30.24 in 10.0 mi NNE 8.1 mph - N/A   Clear
2:53 AM 30.9 °F 23.5 °F 19.9 °F 64% 30.25 in 10.0 mi North 8.1 mph - N/A   Partly Cloudy
3:53 AM 30.9 °F 22.2 °F 19.0 °F 61% 30.23 in 10.0 mi North 10.4 mph 18.4 mph N/A   Overcast
4:53 AM 30.9 °F 19.8 °F 19.0 °F 61% 30.22 in 10.0 mi North 16.1 mph - N/A   Overcast
6:53 AM 30.0 °F 20.0 °F 19.0 °F 64% 30.24 in 10.0 mi NNE 12.7 mph 17.3 mph N/A   Scattered Clouds
7:53 AM 30.0 °F 19.1 °F 19.0 °F 64% 30.25 in 10.0 mi NNE 15.0 mph - N/A   Clear
8:53 AM 30.9 °F 19.8 °F 19.9 °F 64% 30.26 in 10.0 mi NNE 16.1 mph 20.7 mph N/A   Clear
9:53 AM 35.1 °F 25.5 °F 21.9 °F 59% 30.27 in 10.0 mi NNE 15.0 mph - N/A   Clear
10:53 AM 37.0 °F 29.3 °F 23.0 °F 57% 30.27 in 10.0 mi NNE 11.5 mph - N/A   Clear
11:53 AM 39.0 °F 31.0 °F 24.1 °F 55% 30.24 in 10.0 mi NNE 13.8 mph 18.4 mph N/A   Clear
1:53 PM 46.0 °F 39.9 °F 24.1 °F 42% 30.17 in 10.0 mi NNE 13.8 mph 20.7 mph N/A   Clear
3:53 PM 46.9 °F - 23.0 °F 39% 30.17 in 10.0 mi ENE 13.8 mph 21.9 mph N/A   Clear
4:53 PM 46.0 °F 41.0 °F 23.0 °F 40% 30.17 in 10.0 mi ENE 10.4 mph 19.6 mph N/A   Clear
5:53 PM 43.0 °F 37.2 °F 25.0 °F 49% 30.18 in 10.0 mi NE 10.4 mph - N/A   Clear
6:53 PM 41.0 °F 35.2 °F 25.0 °F 53% 30.18 in 10.0 mi NE 9.2 mph - N/A   Clear
7:53 PM 39.0 °F 32.8 °F 26.1 °F 60% 30.18 in 10.0 mi NE 9.2 mph - N/A   Scattered Clouds
8:53 PM 39.0 °F 31.4 °F 26.1 °F 60% 30.18 in 10.0 mi NNE 12.7 mph 19.6 mph N/A   Overcast
9:53 PM 37.9 °F 30.5 °F 26.1 °F 62% 30.16 in 10.0 mi NE 11.5 mph - N/A   Overcast
10:53 PM 37.9 °F 29.2 °F 26.1 °F 62% 30.14 in 10.0 mi NE 15.0 mph 19.6 mph N/A   Overcast
11:53 PM 37.9 °F 30.0 °F 26.1 °F 62% 30.13 in 10.0 mi NE 12.7 mph - N/A   Overcast